[[{"header":{"parameterUnit":"m.s-1","parameterCategory":1,"la1":30.2991,"la2":30.254,"lo1":-89.0895,"lo2":-89.0444,"dy":0.0017,"dx":0.0017,"nx":28,"ny":28,"refTime":"2024-06-27T21:00:00:Z","depth":0,"parameterNumber":2,"parameterNumberName":"U-component_of_WINDS"},"data":[0,0,0,0,0,0,0,0,0,0,0,0,0,0,0,0,0,0,0,0,0,0,0,0,0,0,0,0,0,0,0,0,0,0,0,0,0,0,0,0,0,0,0,0,0,0,0,0,0,0,0,0,0,0,0,0,0,0,5.0852,5.0852,0,5.0879,5.088,5.088,5.0688,5.0683,5.0677,5.0672,5.0705,5.071,5.0716,0,0,0,0,0,0,0,0,0,0,0,0,0,5.0636,5.0641,5.0852,5.0852,5.0853,5.0879,5.088,5.088,5.0689,5.0682,5.0676,5.067,5.0703,5.071,5.0717,0,0,0,0,0,0,0,0,0,0,0,0,0,5.0704,5.0643,5.0852,5.076,5.0752,5.0879,5.088,5.088,5.069,5.0682,5.0674,5.0667,5.07,5.0709,5.0718,5.0935,0,0,5.0745,5.0748,0,0,0,0,0,0,0,0,5.07,5.0712,5.0773,5.0767,5.0758,5.0772,5.0815,5.0898,5.0692,5.0714,5.0672,5.0663,5.0734,5.0739,5.0762,5.0936,5.0937,5.0745,5.0751,5.0755,5.0757,0,0,0,0,0,0,0,5.0696,5.071,5.0863,5.0775,5.0765,5.0719,5.0719,5.083,5.0769,5.0712,5.0698,5.0703,5.0728,5.0754,5.0762,5.0938,5.0745,5.0753,5.0758,5.0762,5.1287,5.1295,0,0,0,0,0,0,5.0703,5.0707,5.0862,5.0863,5.0708,5.0729,5.073,5.0776,5.0767,5.0758,5.071,5.0694,5.0743,5.0752,5.0762,5.1012,5.0755,5.0763,5.0768,5.1278,5.1289,5.1298,0,0,0,0,0,0,5.0699,5.0719,5.0861,5.0781,5.0796,5.0741,5.0795,5.0781,5.0806,5.0766,5.0755,5.0748,5.0737,5.075,5.0892,5.1011,5.0767,5.0775,5.1268,5.1282,5.1294,5.1517,0,0,0,0,0,0,5.0694,5.0718,5.08,5.0785,5.0801,5.099,5.0802,5.0787,5.0822,5.0801,5.0799,5.0791,5.0732,5.088,5.0901,5.1019,5.0782,5.1257,5.1274,5.129,5.1499,5.1536,5.1568,0,0,0,0,0,5.0687,5.0863,5.0805,5.0825,5.0902,5.0997,5.1007,5.0934,5.0832,5.0913,5.0887,5.0791,5.0995,5.0896,5.0918,5.104,5.1249,5.1269,5.1288,5.1483,5.1528,5.1567,0,0,0,0,0,0,5.0896,5.086,5.0794,5.0971,5.0989,5.0965,5.1065,5.0985,5.1033,5.1012,5.0921,5.0922,5.1079,5.1074,5.0964,5.1248,5.1104,5.1129,5.1245,5.1288,5.1322,5.1318,5.0789,0,0,0,0,0,5.0962,5.1042,5.1007,5.1166,5.1178,5.1121,5.116,5.1102,5.1117,5.1124,5.1108,5.1127,5.1194,5.1241,5.1302,5.1498,5.1493,5.1593,5.1627,5.1656,5.1677,5.1777,5.182,5.1362,5.1362,5.1362,0,0,5.1101,5.1091,5.1147,5.1208,5.1214,5.1299,5.1128,5.1226,5.1287,5.1139,5.127,5.126,5.1275,5.1444,5.1518,5.1445,5.1803,5.168,5.1704,5.171,5.1802,5.1845,5.1884,5.1375,5.1373,5.1371,0,0,5.1395,5.1397,5.1528,5.1538,5.1549,5.1509,5.1541,5.1529,5.1516,5.1646,5.1535,5.1609,5.1728,5.1742,5.1765,5.2064,5.1976,5.2087,5.2266,5.2365,5.2401,5.2432,5.2536,5.2575,5.2109,5.211,5.211,0,5.1566,5.1688,5.1606,5.171,5.1739,5.1607,5.1738,5.1752,5.1784,5.1807,5.1725,5.187,5.1872,5.204,5.2113,5.2137,5.2169,5.2085,5.2402,5.2433,5.2461,5.2559,5.2598,5.2123,5.2121,5.212,5.2119,0,5.1896,5.1983,5.2088,5.2118,5.216,5.2278,5.2213,5.2265,5.2204,5.2174,5.2308,5.2304,5.236,5.2396,5.2339,5.2557,5.2511,5.2418,5.2271,5.2519,5.2609,5.2646,5.2142,5.2137,5.2133,5.213,0,0,5.2322,5.2305,5.2345,5.2355,5.2358,5.2423,5.2535,5.2588,5.2633,5.266,5.2749,5.2853,5.2765,5.2792,5.2735,5.2822,5.3054,5.2717,5.2715,5.2777,5.3291,5.3359,5.3404,5.2997,5.3004,5.3009,5.3288,0,5.2607,5.2794,5.2723,5.2916,5.2993,5.2868,5.2965,5.2977,5.2952,5.3014,5.2986,5.306,5.294,5.2955,5.3036,5.3009,5.3156,5.2988,5.3079,5.3083,5.3075,5.3451,5.3524,5.3787,5.3323,5.3329,5.3334,0,5.2963,5.3001,5.3202,5.3187,5.3217,5.3306,5.3346,5.3409,5.3419,5.3394,5.3423,5.3347,5.3455,5.3311,5.3457,5.3345,5.3378,5.3371,5.3379,5.3382,5.3221,5.3462,5.387,5.3908,5.3389,5.3385,5.3381,0,5.325,5.3352,5.3483,5.3497,5.3485,5.355,5.3548,5.355,5.3586,5.3623,5.3645,5.3696,5.3723,5.3763,5.3702,5.3603,5.3857,5.3708,5.3838,5.384,5.3894,5.3891,5.4311,5.3922,5.3922,5.3921,5.392,0,5.3573,5.3699,5.3611,5.3692,5.3829,5.3747,5.3886,5.3871,5.3874,5.3949,5.3847,5.392,5.3836,5.3901,5.3855,5.3982,5.3996,5.3978,5.3963,5.3985,5.3987,5.4003,5.3982,5.3931,5.3929,5.3927,5.3925,0,5.3915,5.3861,5.3995,5.3973,5.397,5.4072,5.4052,5.4126,5.4093,5.419,5.4208,5.4157,5.4228,5.4171,5.4243,5.4211,5.4377,5.4339,5.4373,5.4361,5.4493,5.448,5.4935,5.4989,5.4569,5.4573,5.4577,0,5.4122,5.4216,5.4203,5.4245,5.4249,5.432,5.4354,5.4278,5.4318,5.4337,5.4408,5.4471,5.4516,5.4636,5.4605,5.4658,5.4618,5.4774,5.4625,5.4643,5.4616,5.461,5.4617,5.4803,5.4808,5.4812,5.4815,0,5.4496,5.4464,5.4518,5.4563,5.4607,5.4639,5.4662,5.4703,5.4625,5.4676,5.4746,5.4782,5.4852,5.4915,5.4957,5.4955,5.4873,5.4863,5.4895,5.4916,5.4931,5.4921,5.4451,5.4852,5.4848,5.4846,5.4844,5.4842,5.4774,5.4851,5.4852,5.4915,5.4924,5.4949,5.5015,5.499,5.5047,5.5097,5.505,5.5135,5.5141,5.5189,5.5198,5.5263,5.5198,5.5246,5.5257,5.5269,5.5286,5.4923,5.5271,5.527,5.5269,5.5268,5.5267,0,5.5139,5.5134,5.5192,5.5227,5.5277,5.5194,5.5215,5.5262,5.5337,5.5351,5.5397,5.5477,5.5537,5.5511,5.5563,5.562,5.5583,5.5636,5.5629,5.563,5.5343,5.5308,5.5665,5.5665,5.5665,5.5665,5.5665,5.5665,5.5334,5.5458,5.5427,5.5554,5.5547,5.5628,5.5647,5.5669,5.5678,5.5772,5.582,5.5802,5.5799,5.585,5.5901,5.5892,5.5915,5.5981,5.5958,5.569,5.5651,5.5613,5.5579,5.5988,5.5988,5.6238,5.6241,5.6243]},{"header":{"parameterUnit":"m.s-1","parameterCategory":1,"la1":30.2991,"la2":30.254,"lo1":-89.0895,"lo2":-89.0444,"dy":0.0017,"dx":0.0017,"nx":28,"ny":28,"refTime":"2024-06-27T21:00:00:Z","depth":0,"parameterNumber":3,"parameterNumberName":"V-component_of_WINDS"},"data":[0,0,0,0,0,0,0,0,0,0,0,0,0,0,0,0,0,0,0,0,0,0,0,0,0,0,0,0,0,0,0,0,0,0,0,0,0,0,0,0,0,0,0,0,0,0,0,0,0,0,0,0,0,0,0,0,0,0,2.5824,2.5824,0,2.5891,2.5892,2.5893,2.5848,2.5846,2.5844,2.5842,2.5912,2.5915,2.5919,0,0,0,0,0,0,0,0,0,0,0,0,0,2.5655,2.5659,2.5823,2.5824,2.5825,2.5891,2.5892,2.5893,2.5848,2.5846,2.5843,2.5841,2.591,2.5915,2.5919,0,0,0,0,0,0,0,0,0,0,0,0,0,2.5726,2.566,2.5823,2.5811,2.581,2.5891,2.5892,2.5893,2.5849,2.5846,2.5843,2.584,2.5909,2.5914,2.592,2.6016,0,0,2.5937,2.594,0,0,0,0,0,0,0,0,2.5722,2.5733,2.5812,2.5812,2.5812,2.5858,2.5858,2.5934,2.585,2.5834,2.5842,2.5838,2.5896,2.5903,2.5922,2.602,2.6023,2.5938,2.5941,2.5944,2.5945,0,0,0,0,0,0,0,2.5718,2.5729,2.585,2.5813,2.5813,2.5802,2.5808,2.5872,2.5882,2.5835,2.5832,2.5841,2.5896,2.5917,2.5924,2.6024,2.5938,2.5943,2.5946,2.5948,2.6202,2.6205,0,0,0,0,0,0,2.5714,2.5726,2.5848,2.5852,2.5758,2.5807,2.5815,2.5846,2.5881,2.5883,2.5844,2.5839,2.5909,2.5917,2.5926,2.604,2.5944,2.5949,2.5952,2.6199,2.6203,2.6206,0,0,0,0,0,0,2.571,2.5725,2.5845,2.5788,2.5803,2.5813,2.5849,2.5849,2.587,2.5887,2.5888,2.5864,2.5907,2.5918,2.5994,2.6042,2.5951,2.5957,2.6195,2.62,2.6204,2.627,0,0,0,0,0,0,2.5706,2.5724,2.5761,2.5789,2.5806,2.5913,2.5852,2.5853,2.588,2.5874,2.5906,2.5909,2.5905,2.5986,2.5999,2.6048,2.5961,2.619,2.6197,2.6203,2.6264,2.6277,2.6288,0,0,0,0,0,2.57,2.5777,2.5763,2.5778,2.5852,2.5916,2.5925,2.5919,2.5884,2.5921,2.5932,2.5908,2.6034,2.5994,2.6009,2.606,2.6187,2.6195,2.6202,2.6258,2.6274,2.6287,0,0,0,0,0,0,2.5755,2.5781,2.5765,2.5854,2.5883,2.5908,2.5955,2.5937,2.5976,2.5969,2.596,2.5968,2.6047,2.6061,2.6015,2.6154,2.6105,2.6116,2.6142,2.6158,2.6169,2.6164,2.5966,0,0,0,0,0,2.5777,2.5826,2.5846,2.5923,2.5938,2.5944,2.5971,2.5964,2.5994,2.6006,2.6022,2.6051,2.6097,2.6128,2.6172,2.6265,2.6271,2.6308,2.632,2.6329,2.6339,2.6388,2.6404,2.6231,2.6231,2.6231,0,0,2.5824,2.5844,2.5876,2.5934,2.5956,2.6007,2.5954,2.6011,2.6048,2.6014,2.6087,2.61,2.6132,2.6216,2.6255,2.6231,2.6388,2.6339,2.6347,2.6351,2.6398,2.6414,2.6429,2.6236,2.6235,2.6234,0,0,2.5936,2.5956,2.6021,2.6044,2.6077,2.608,2.6096,2.6123,2.613,2.6203,2.6178,2.6222,2.6302,2.6326,2.6349,2.6468,2.6446,2.6482,2.6545,2.6593,2.6607,2.6619,2.6661,2.6676,2.6491,2.6492,2.6492,0,2.599,2.6066,2.6057,2.6115,2.6141,2.6112,2.6178,2.62,2.6246,2.6264,2.6237,2.6336,2.6356,2.6445,2.6474,2.6493,2.651,2.6478,2.6606,2.6618,2.6629,2.6668,2.6684,2.6496,2.6495,2.6495,2.6494,0,2.613,2.6183,2.6232,2.6276,2.6307,2.6369,2.637,2.6403,2.6393,2.6399,2.6472,2.6495,2.6542,2.6563,2.6554,2.6651,2.6634,2.6607,2.6557,2.6649,2.6687,2.6702,2.6501,2.65,2.6499,2.6498,0,0,2.6279,2.6317,2.6335,2.6354,2.6388,2.6428,2.6488,2.6534,2.6562,2.6594,2.6644,2.6712,2.6685,2.6711,2.6704,2.6747,2.6838,2.6713,2.6714,2.6735,2.6945,2.6966,2.6984,2.6824,2.6827,2.6829,2.6942,0,2.6392,2.6496,2.649,2.6588,2.6636,2.6609,2.6661,2.6687,2.6694,2.6735,2.6743,2.6791,2.6753,2.6768,2.6809,2.6819,2.688,2.681,2.687,2.6872,2.6863,2.7003,2.7025,2.7131,2.6957,2.6959,2.6961,0,2.6537,2.6574,2.6677,2.6702,2.6722,2.6769,2.6809,2.685,2.6878,2.688,2.6909,2.6895,2.6954,2.6903,2.6985,2.6938,2.6962,2.697,2.6974,2.6979,2.6922,2.7012,2.7164,2.718,2.6984,2.6982,2.698,0,2.6635,2.671,2.678,2.6798,2.6829,2.6862,2.6877,2.6903,2.693,2.6966,2.6983,2.7026,2.7049,2.7082,2.7079,2.7042,2.7162,2.7111,2.7165,2.7165,2.7192,2.719,2.735,2.7208,2.7207,2.7207,2.7207,0,2.6761,2.6825,2.6824,2.6868,2.6938,2.693,2.7,2.7011,2.7034,2.7078,2.7057,2.71,2.7094,2.7137,2.7135,2.7203,2.7213,2.7216,2.7215,2.7218,2.7218,2.7234,2.7226,2.7211,2.721,2.721,2.7209,0,2.6882,2.6884,2.6959,2.6982,2.699,2.704,2.706,2.7101,2.7106,2.7163,2.7176,2.7183,2.7232,2.7233,2.7289,2.7287,2.737,2.7361,2.736,2.7358,2.7412,2.7407,2.7588,2.7611,2.7454,2.7455,2.7457,0,2.6962,2.701,2.7038,2.7067,2.7083,2.713,2.7157,2.7151,2.7181,2.7216,2.7253,2.7299,2.7337,2.7416,2.7426,2.7468,2.746,2.752,2.7466,2.7467,2.746,2.7457,2.7461,2.7531,2.7532,2.7534,2.7535,0,2.7104,2.7102,2.7143,2.7184,2.7218,2.725,2.728,2.7304,2.7301,2.7335,2.7385,2.7414,2.747,2.7517,2.7558,2.7572,2.7553,2.7552,2.7566,2.757,2.7568,2.7569,2.7389,2.7548,2.7547,2.7546,2.7545,2.7544,2.7207,2.7248,2.7274,2.7319,2.7341,2.7369,2.7408,2.7417,2.7459,2.7504,2.7498,2.7553,2.7579,2.7632,2.765,2.7693,2.7672,2.7693,2.7698,2.7704,2.7709,2.7561,2.77,2.77,2.7699,2.7699,2.7699,0,2.7347,2.7362,2.7404,2.7446,2.7482,2.746,2.7492,2.7523,2.7572,2.7598,2.7635,2.7691,2.7736,2.7749,2.7792,2.7823,2.7816,2.7835,2.7832,2.7836,2.7726,2.7709,2.784,2.784,2.784,2.784,2.784,2.784,2.7424,2.7492,2.7494,2.7572,2.7587,2.764,2.766,2.7685,2.7706,2.777,2.7807,2.7815,2.7836,2.788,2.792,2.7922,2.7939,2.7962,2.7961,2.7858,2.7844,2.783,2.7814,2.7966,2.7966,2.8067,2.8068,2.8069]}]]